Location: ???????
(52.3000°N, 54.4667°E)
Time: 13:54:20
(UTC+00:00)

H-2A R/B - Pass Details

Date: 24 January 2020
Orbit: 734 x 836 km, 98.2° (Epoch: 17 February)

Event Time Altitude Azimuth Distance (km) Brightness Sun altitude
Exits shadow 14:28:27 21° 68° (ENE) 1,670 3.1 -14.3°
Maximum altitude 14:29:11 22° 56° (NE) 1,644 3.2 -14.4°
Drops below altitude 10° 14:33:03 10° 7° (N) 2,346 4.3 -15.0°
Sets 14:35:52 0° 353° (N) 3,298 5.2 -15.4°
